KJ4AJP Weather Reports


time (UTC)temp
C
wind
direction
speed
KPH
gust
KPH
rain 1hr
cm
rain 24hr
cm
rain mn
cm
humidity
%
barometer
mb
20260507130816 10 53 0.0 0.0 0.00 0.00 0.00 97 1017.8
20260507130314 10 50 0.0 0.0 0.00 0.00 0.00 99 1017.6
20260507125813 9 52 0.0 0.0 0.00 0.00 0.00 99 1017.7
20260507125309 9 34 3.2 3.2 0.00 0.00 0.00 99 1017.6
20260507124806 9 51 0.0 0.0 0.00 0.00 0.00 99 1017.4
20260507124303 8 54 0.0 0.0 0.00 0.00 0.00 99 1017.5
20260507123801 8 51 0.0 0.0 0.00 0.00 0.00 99 1017.5
20260507123259 8 48 0.0 0.0 0.00 0.00 0.00 99 1017.3
20260507122754 8 48 0.0 0.0 0.00 0.00 0.00 99 1017.3
20260507122249 8 47 0.0 0.0 0.00 0.00 0.00 99 1017.3
20260507121746 8 45 0.0 1.6 0.00 0.00 0.00 99 1017.1
20260507121242 7 48 0.0 0.0 0.00 0.00 0.00 99 1017.1
20260507120738 7 48 0.0 0.0 0.00 0.00 0.00 99 1017.2
20260507120235 7 48 0.0 0.0 0.00 0.00 0.00 99 1017.0
20260507115731 7 48 0.0 0.0 0.00 0.00 0.00 99 1016.9
20260507115227 7 48 0.0 0.0 0.00 0.00 0.00 99 1017.0
20260507114723 6 48 0.0 0.0 0.00 0.00 0.00 99 1017.0
20260507114221 6 48 0.0 0.0 0.00 0.00 0.00 99 1016.6
20260507113718 6 48 0.0 0.0 0.00 0.00 0.00 99 1016.7
20260507113215 6 48 0.0 0.0 0.00 0.00 0.00 99 1016.7
20260507112712 6 48 0.0 0.0 0.00 0.00 0.00 99 1016.7
20260507112209 6 48 0.0 0.0 0.00 0.00 0.00 99 1016.7
20260507111706 6 48 0.0 0.0 0.00 0.00 0.00 99 1016.6
20260507111203 6 48 0.0 0.0 0.00 0.00 0.00 99 1016.4
20260507110659 6 48 0.0 0.0 0.00 0.00 0.00 99 1016.7
20260507110156 6 48 0.0 0.0 0.00 0.00 0.00 99 1016.7
20260507105653 6 48 0.0 0.0 0.00 0.00 0.00 99 1016.4
20260507105149 6 48 0.0 0.0 0.00 0.00 0.00 99 1016.5
20260507104646 7 48 0.0 0.0 0.00 0.00 0.00 99 1016.6
20260507104142 7 48 0.0 0.0 0.00 0.00 0.00 99 1016.6
20260507103638 7 48 0.0 0.0 0.00 0.00 0.00 99 1016.6
20260507103136 7 48 0.0 0.0 0.00 0.00 0.00 99 1016.5
20260507102632 7 48 0.0 0.0 0.00 0.00 0.00 99 1016.6
20260507102128 7 48 0.0 0.0 0.00 0.00 0.00 99 1016.6
20260507101624 7 48 0.0 0.0 0.00 0.00 0.00 99 1016.4
20260507101120 7 48 0.0 0.0 0.00 0.00 0.00 99 1016.5
20260507100618 7 48 0.0 0.0 0.00 0.00 0.00 99 1016.4
20260507100116 7 48 0.0 0.0 0.00 0.00 0.00 99 1016.5
20260507095613 7 48 0.0 0.0 0.00 0.00 0.00 99 1016.4
20260507095110 7 48 0.0 0.0 0.00 0.00 0.00 99 1016.3
20260507094606 7 48 0.0 0.0 0.00 0.00 0.00 99 1016.3
20260507094103 7 48 0.0 0.0 0.00 0.00 0.00 99 1016.5
20260507093600 7 48 0.0 0.0 0.00 0.00 0.00 99 1016.6
20260507093059 7 48 0.0 0.0 0.00 0.00 0.00 99 1016.4
20260507092555 7 48 0.0 0.0 0.00 0.00 0.00 99 1016.3
20260507092052 7 48 0.0 0.0 0.00 0.00 0.00 99 1016.1
20260507091549 7 48 0.0 0.0 0.00 0.00 0.00 99 1016.0
20260507091045 7 48 0.0 0.0 0.00 0.00 0.00 99 1016.3
20260507090541 7 48 0.0 0.0 0.00 0.00 0.00 99 1015.9
20260507090038 7 48 0.0 0.0 0.00 0.00 0.00 99 1015.6
20260507085535 7 48 0.0 0.0 0.00 0.00 0.00 99 1015.7
20260507085031 7 48 0.0 0.0 0.00 0.00 0.00 99 1015.6
20260507084528 7 48 0.0 0.0 0.00 0.00 0.00 99 1015.7
20260507084025 8 48 0.0 0.0 0.00 0.00 0.00 99 1015.7
20260507083521 8 48 0.0 0.0 0.00 0.00 0.00 99 1015.7
20260507083019 8 48 0.0 0.0 0.00 0.00 0.00 99 1015.8
20260507082514 8 48 0.0 0.0 0.00 0.00 0.00 99 1015.7
20260507082011 8 48 0.0 0.0 0.00 0.00 0.00 99 1015.8
20260507081507 8 48 0.0 0.0 0.00 0.00 0.00 99 1015.8
20260507081004 8 48 0.0 0.0 0.00 0.00 0.00 99 1015.6
20260507080500 8 48 0.0 0.0 0.00 0.00 0.00 99 1015.6
20260507075955 8 48 0.0 0.0 0.00 0.00 0.00 99 1015.8
20260507075452 8 48 0.0 0.0 0.00 0.00 0.00 99 1015.7
20260507074948 8 48 0.0 0.0 0.00 0.00 0.00 99 1016.0
20260507074445 8 48 0.0 0.0 0.00 0.00 0.00 99 1015.9
20260507073944 8 48 0.0 0.0 0.00 0.00 0.00 99 1016.0
20260507073439 9 48 0.0 0.0 0.00 0.00 0.00 99 1015.8
20260507072936 9 48 0.0 0.0 0.00 0.00 0.00 99 1015.7
20260507072434 9 48 0.0 0.0 0.00 0.00 0.00 99 1015.7
20260507071931 9 48 0.0 0.0 0.00 0.00 0.00 99 1015.6
20260507071428 9 48 0.0 0.0 0.00 0.00 0.00 99 1015.8
20260507070924 9 48 0.0 0.0 0.00 0.00 0.00 99 1015.9
20260507070422 9 48 0.0 0.0 0.00 0.00 0.00 99 1015.8
20260507065919 10 48 0.0 0.0 0.00 0.00 0.00 99 1015.7
20260507065416 10 48 0.0 0.0 0.00 0.00 0.00 99 1015.6
20260507064913 10 48 0.0 0.0 0.00 0.00 0.00 99 1015.8
20260507064411 10 48 0.0 0.0 0.00 0.00 0.00 99 1015.7
20260507063908 10 48 0.0 0.0 0.00 0.00 0.00 99 1015.6
20260507063406 10 48 0.0 0.0 0.00 0.00 0.00 99 1015.8
20260507062902 10 48 0.0 0.0 0.00 0.00 0.00 99 1015.8
20260507062359 10 48 0.0 0.0 0.00 0.00 0.00 99 1015.8
20260507061857 10 48 0.0 0.0 0.00 0.00 0.00 99 1015.9
20260507061355 10 48 0.0 0.0 0.00 0.00 0.00 99 1015.8
20260507060853 10 48 0.0 0.0 0.00 0.00 0.00 99 1015.8
20260507060349 10 48 0.0 0.0 0.00 0.00 0.00 99 1015.9
20260507055846 10 48 0.0 0.0 0.00 0.00 0.00 99 1016.1
20260507055341 10 48 0.0 0.0 0.00 0.00 0.00 99 1016.0
20260507054838 10 48 0.0 0.0 0.00 0.00 0.00 99 1015.9
20260507054334 10 48 0.0 0.0 0.00 0.00 0.00 99 1015.9
20260507053831 10 48 0.0 0.0 0.00 0.00 0.00 99 1016.1
20260507053329 10 48 0.0 0.0 0.00 0.00 0.00 99 1015.9
20260507052828 10 48 0.0 0.0 0.00 0.00 0.00 99 1016.1
20260507052324 10 48 0.0 0.0 0.00 0.00 0.00 99 1015.9
20260507051822 10 48 0.0 0.0 0.00 0.00 0.00 99 1015.8
20260507051319 10 48 0.0 0.0 0.00 0.00 0.00 99 1015.9
20260507050816 10 48 0.0 0.0 0.00 0.00 0.00 99 1015.9
20260507050312 10 48 0.0 0.0 0.00 0.00 0.00 99 1015.8
20260507045809 10 48 0.0 0.0 0.00 0.56 0.56 99 1015.8
20260507045307 10 48 0.0 0.0 0.00 0.56 0.56 99 1015.9
20260507044803 10 48 0.0 0.0 0.00 0.56 0.56 99 1015.7
20260507044259 10 48 0.0 0.0 0.00 0.56 0.56 99 1015.8
20260507043755 10 48 0.0 0.0 0.00 0.56 0.56 99 1015.9
20260507043252 10 48 0.0 0.0 0.00 0.56 0.56 99 1015.9
20260507042748 10 48 0.0 0.0 0.00 0.56 0.56 99 1015.9
20260507042243 10 48 0.0 0.0 0.00 0.56 0.56 99 1016.0
20260507041742 10 48 0.0 0.0 0.00 0.56 0.56 99 1016.3
20260507041238 10 48 0.0 0.0 0.00 0.56 0.56 99 1016.1
20260507040735 10 48 0.0 0.0 0.00 0.56 0.56 99 1016.1
20260507040231 10 48 0.0 0.0 0.00 0.56 0.56 99 1016.0
20260507035727 10 48 0.0 0.0 0.00 0.56 0.56 99 1015.9
20260507035223 10 48 0.0 0.0 0.00 0.56 0.56 99 1015.9
20260507034720 10 48 0.0 0.0 0.00 0.56 0.56 99 1016.1
20260507034217 10 48 0.0 0.0 0.00 0.56 0.56 99 1015.8
20260507033716 10 48 0.0 0.0 0.00 0.56 0.56 99 1015.9
20260507033213 10 48 0.0 0.0 0.00 0.56 0.56 99 1016.1
20260507032710 10 48 0.0 0.0 0.00 0.56 0.56 99 1015.8
20260507032206 10 48 0.0 0.0 0.00 0.56 0.56 99 1016.0
20260507031703 11 48 0.0 0.0 0.00 0.56 0.56 99 1015.9
20260507031159 11 48 0.0 0.0 0.00 0.56 0.56 99 1015.7
20260507030656 11 48 0.0 0.0 0.00 0.56 0.56 99 1015.3
20260507030154 11 48 0.0 0.0 0.00 0.56 0.56 99 1015.5
20260507025651 11 48 0.0 0.0 0.00 0.56 0.56 98 1015.4
20260507025148 11 48 0.0 0.0 0.00 0.56 0.56 98 1015.3
20260507024646 11 48 0.0 0.0 0.00 0.56 0.56 98 1015.2
20260507024143 11 48 0.0 0.0 0.00 0.56 0.56 98 1015.2
20260507023638 11 48 0.0 0.0 0.00 0.56 0.56 98 1015.4
20260507023136 11 48 0.0 0.0 0.00 0.56 0.56 98 1014.9
20260507022633 11 48 0.0 0.0 0.00 0.56 0.56 98 1015.0
20260507022128 11 48 0.0 0.0 0.00 0.56 0.56 98 1015.5
20260507021625 11 48 0.0 0.0 0.00 0.56 0.56 98 1015.5
20260507021120 11 48 0.0 0.0 0.00 0.56 0.56 98 1015.6
20260507020619 11 48 0.0 0.0 0.00 0.56 0.56 98 1015.6
20260507020115 11 48 0.0 0.0 0.00 0.56 0.56 98 1015.5
20260507015613 11 48 0.0 0.0 0.00 0.56 0.56 98 1015.2
20260507015110 11 48 0.0 0.0 0.00 0.56 0.56 98 1015.1
20260507014607 11 48 0.0 0.0 0.00 0.56 0.56 98 1015.2
20260507014102 11 48 0.0 0.0 0.00 0.56 0.56 98 1015.2
20260507013559 11 48 0.0 0.0 0.00 0.56 0.56 97 1015.1
20260507013057 11 48 0.0 0.0 0.00 0.56 0.56 97 1015.4
20260507012554 11 48 0.0 0.0 0.00 0.56 0.56 97 1015.6
20260507012049 11 48 0.0 0.0 0.00 0.56 0.56 97 1015.3
20260507011548 12 48 0.0 0.0 0.00 0.56 0.56 97 1015.4
20260507011044 12 48 0.0 0.0 0.00 0.56 0.56 97 1015.4
20260507010538 12 48 0.0 0.0 0.00 0.56 0.56 97 1015.4
20260507010034 12 48 0.0 0.0 0.00 0.56 0.56 97 1015.7
20260507005533 12 48 0.0 0.0 0.00 0.56 0.56 97 1015.4
20260507005028 12 48 0.0 0.0 0.00 0.56 0.56 96 1015.6
20260507004526 12 48 0.0 0.0 0.00 0.56 0.56 96 1015.6
20260507004023 12 48 0.0 0.0 0.00 0.56 0.56 96 1015.6
20260507003518 12 48 0.0 0.0 0.00 0.56 0.56 96 1015.8
20260507003014 12 48 0.0 0.0 0.00 0.56 0.56 96 1015.8
20260507002510 12 48 0.0 0.0 0.00 0.56 0.56 96 1015.7
20260507002007 12 48 0.0 0.0 0.00 0.56 0.56 96 1015.6
20260507001503 12 48 0.0 0.0 0.00 0.56 0.56 96 1015.8
20260507001001 12 47 0.0 0.0 0.00 0.56 0.56 96 1015.2
20260507000456 12 47 0.0 0.0 0.00 0.56 0.56 95 1015.2
20260506235952 12 47 0.0 0.0 0.00 0.56 0.56 95 1015.0
20260506235450 12 47 0.0 0.0 0.00 0.56 0.56 96 1014.9
20260506234945 12 46 0.0 0.0 0.00 0.56 0.56 96 1014.8
20260506234443 12 53 1.6 1.6 0.00 0.56 0.56 96 1014.4
20260506233940 12 55 0.0 0.0 0.00 0.56 0.56 96 1014.0
20260506233437 12 55 0.0 0.0 0.00 0.56 0.56 96 1014.2
20260506232933 12 55 0.0 0.0 0.00 0.56 0.56 96 1013.8
20260506232430 12 55 0.0 0.0 0.00 0.56 0.56 96 1014.1
20260506231925 12 55 0.0 0.0 0.00 0.56 0.56 96 1014.1
20260506231423 12 55 0.0 0.0 0.00 0.56 0.56 96 1013.8
20260506230920 12 55 0.0 0.0 0.00 0.56 0.56 96 1013.6
20260506230417 12 55 0.0 0.0 0.00 0.56 0.56 96 1013.3
20260506225913 12 55 0.0 0.0 0.00 0.56 0.56 95 1013.3
20260506225411 12 55 0.0 0.0 0.00 0.56 0.56 95 1013.2
20260506224908 12 56 0.0 0.0 0.00 0.56 0.56 95 1013.2
20260506224405 12 54 0.0 0.0 0.00 0.56 0.56 95 1013.6
20260506223901 12 50 0.0 0.0 0.00 0.56 0.56 96 1013.8
20260506223356 12 45 0.0 0.0 0.00 0.56 0.56 96 1013.7
20260506222854 12 43 0.0 0.0 0.00 0.56 0.56 95 1013.9
20260506222349 12 47 0.0 0.0 0.00 0.56 0.56 95 1013.8
20260506221847 12 47 0.0 0.0 0.13 0.56 0.56 95 1014.4
20260506221344 12 46 0.0 0.0 0.30 0.56 0.56 95 1015.0
20260506220842 12 46 0.0 0.0 0.18 0.53 0.53 94 1014.9
20260506220337 12 45 0.0 0.0 0.18 0.53 0.53 94 1015.0
20260506215834 12 49 0.0 0.0 0.00 0.51 0.51 94 1014.8
20260506215330 12 40 0.0 0.0 0.00 0.51 0.51 94 1014.8
20260506214826 12 40 0.0 0.0 0.00 0.51 0.51 94 1014.8
20260506214323 12 40 0.0 0.0 0.00 0.51 0.51 93 1014.8
20260506213821 12 40 0.0 0.0 0.00 0.51 0.51 93 1014.7
20260506213318 12 40 0.0 0.0 0.00 0.51 0.51 93 1014.7
20260506212816 12 40 0.0 0.0 0.00 0.51 0.51 93 1014.6
20260506212311 12 38 0.0 0.0 0.00 0.51 0.51 93 1014.7
20260506211806 13 47 0.0 0.0 0.00 0.51 0.51 94 1014.5
20260506211303 12 46 0.0 0.0 0.00 0.51 0.51 94 1014.6
20260506210801 12 47 0.0 0.0 0.13 0.51 0.51 94 1014.7
20260506210257 12 47 0.0 0.0 0.13 0.51 0.51 94 1014.5
20260506205754 12 47 0.0 0.0 0.18 0.48 0.48 94 1014.6
20260506205250 12 47 0.0 0.0 0.18 0.48 0.48 94 1014.8
20260506204746 12 47 0.0 0.0 0.13 0.46 0.46 93 1014.5
20260506204244 12 47 0.0 0.0 0.13 0.46 0.46 92 1014.9
20260506203742 12 47 0.0 0.0 0.00 0.43 0.43 91 1015.0
20260506203239 12 47 0.0 0.0 0.18 0.43 0.43 91 1015.0
20260506202736 12 47 0.0 0.0 0.18 0.43 0.43 91 1014.8
20260506202232 12 46 0.0 0.0 0.00 0.41 0.41 91 1015.0
20260506201729 12 46 0.0 0.0 0.00 0.41 0.41 91 1015.1
20260506201226 13 46 0.0 0.0 0.00 0.41 0.41 92 1014.9
20260506200723 13 46 0.0 0.0 0.13 0.41 0.41 91 1014.7
20260506200220 13 46 0.0 0.0 0.13 0.41 0.41 91 1014.5
20260506195716 13 45 0.0 0.0 0.00 0.38 0.38 90 1014.8
20260506195213 13 44 0.0 0.0 0.18 0.38 0.38 90 1015.3
20260506194710 13 44 0.0 0.0 0.18 0.38 0.38 89 1015.4
20260506194206 13 44 0.0 0.0 0.00 0.36 0.36 87 1015.5
20260506193704 13 43 0.0 0.0 0.13 0.36 0.36 85 1015.8
20260506193201 13 56 0.0 0.0 0.13 0.36 0.36 83 1016.0
20260506192658 13 63 0.0 0.0 0.00 0.33 0.33 82 1015.4
20260506192154 13 52 0.0 0.0 0.00 0.33 0.33 80 1015.4
20260506191651 13 60 0.0 0.0 0.00 0.33 0.33 80 1015.5
20260506191147 13 70 0.0 1.6 0.00 0.33 0.33 80 1014.9
20260506190645 13 61 0.0 0.0 0.00 0.33 0.33 80 1014.7
20260506190141 13 54 0.0 0.0 0.00 0.33 0.33 80 1015.3
20260506185638 13 43 0.0 0.0 0.00 0.33 0.33 78 1015.6
20260506185134 13 42 0.0 0.0 0.00 0.33 0.33 78 1014.9
20260506184632 13 57 0.0 0.0 0.00 0.33 0.33 78 1014.4
20260506184129 13 43 1.6 1.6 0.00 0.33 0.33 78 1014.5
20260506183626 13 53 0.0 0.0 0.00 0.33 0.33 78 1014.6
20260506183121 13 68 1.6 1.6 0.00 0.33 0.33 79 1015.1
20260506182619 13 46 0.0 0.0 0.00 0.33 0.33 81 1015.3
20260506182116 13 44 1.6 1.6 0.00 0.33 0.33 79 1015.2
20260506181614 13 40 0.0 0.0 0.00 0.33 0.33 79 1015.1
20260506181111 13 20 1.6 3.2 0.00 0.33 0.33 81 1015.1
20260506180608 13 31 3.2 3.2 0.00 0.33 0.33 79 1015.1
20260506180104 13 124 3.2 3.2 0.00 0.33 0.33 79 1015.0
20260506175600 13 43 0.0 1.6 0.00 0.33 0.33 78 1014.5
20260506175056 13 35 1.6 3.2 0.00 0.33 0.33 79 1014.6
20260506174556 13 68 0.0 1.6 0.00 0.33 0.33 79 1014.6
20260506174051 13 78 1.6 1.6 0.00 0.33 0.33 79 1015.0
20260506173549 13 52 0.0 1.6 0.00 0.33 0.33 77 1015.3
20260506173046 14 69 1.6 1.6 0.00 0.33 0.33 75 1015.4
20260506172543 14 64 0.0 0.0 0.00 0.33 0.33 77 1015.1
20260506172039 14 49 0.0 0.0 0.00 0.33 0.33 77 1015.0
20260506171537 13 39 1.6 1.6 0.00 0.33 0.33 79 1014.8
20260506171034 13 41 1.6 1.6 0.00 0.33 0.33 81 1015.1
20260506170532 13 40 0.0 1.6 0.00 0.33 0.33 80 1015.1
20260506170029 13 51 0.0 0.0 0.00 0.33 0.33 80 1014.9
20260506165528 13 57 0.0 0.0 0.00 0.33 0.33 80 1014.9
20260506165023 13 37 1.6 3.2 0.00 0.33 0.33 78 1015.0
20260506164520 13 41 1.6 1.6 0.00 0.33 0.33 78 1015.0
20260506164018 13 33 1.6 1.6 0.00 0.33 0.33 77 1015.0
20260506163514 13 40 1.6 1.6 0.00 0.33 0.33 77 1014.6
20260506163010 13 73 1.6 3.2 0.00 0.33 0.33 77 1014.5
20260506162506 13 47 1.6 3.2 0.00 0.33 0.33 78 1014.6
20260506162003 13 39 3.2 3.2 0.00 0.33 0.33 77 1014.5
20260506161501 13 55 1.6 1.6 0.00 0.33 0.33 77 1014.3
20260506160958 13 17 1.6 1.6 0.00 0.33 0.33 78 1014.5
20260506160455 13 56 0.0 0.0 0.00 0.33 0.33 78 1014.7
20260506155952 13 46 0.0 1.6 0.00 0.33 0.33 79 1014.8
20260506155450 12 62 0.0 1.6 0.00 0.33 0.33 81 1014.9
20260506153616 12 53 0.0 0.0 0.00 0.33 0.33 81 1015.1
20260506153114 12 56 0.0 0.0 0.00 0.33 0.33 81 1015.2
20260506152611 12 42 0.0 0.0 0.00 0.33 0.33 82 1015.6
20260506152109 12 47 0.0 0.0 0.00 0.33 0.33 81 1015.3
20260506151607 12 52 0.0 0.0 0.00 0.33 0.33 82 1015.0
20260506151103 12 55 0.0 0.0 0.00 0.33 0.33 82 1014.7
20260506150600 12 54 0.0 0.0 0.00 0.33 0.33 81 1014.7
20260506150057 11 54 0.0 0.0 0.00 0.33 0.33 83 1014.8
20260506145554 11 37 1.6 1.6 0.00 0.33 0.33 82 1014.8
20260506145051 11 58 1.6 1.6 0.00 0.33 0.33 83 1014.7
20260506144548 11 41 0.0 0.0 0.00 0.33 0.33 85 1014.7
20260506144045 10 36 3.2 3.2 0.00 0.33 0.33 85 1014.4
20260506143543 10 40 1.6 3.2 0.00 0.33 0.33 84 1014.4
20260506143041 10 37 1.6 3.2 0.00 0.33 0.33 86 1014.2
20260506142538 10 60 0.0 0.0 0.00 0.33 0.33 86 1014.6
20260506142037 10 55 0.0 0.0 0.00 0.33 0.33 86 1014.4
20260506141534 10 54 0.0 0.0 0.00 0.33 0.33 87 1014.2
20260506141032 10 53 0.0 0.0 0.00 0.33 0.33 87 1014.2
20260506140529 10 53 0.0 0.0 0.00 0.33 0.33 87 1013.8
20260506140026 10 56 0.0 1.6 0.00 0.33 0.33 88 1013.8
20260506135523 10 71 3.2 4.8 0.00 0.33 0.33 89 1013.9
20260506135019 10 59 0.0 0.0 0.00 0.33 0.33 89 1013.7
20260506134515 10 52 0.0 0.0 0.00 0.33 0.33 89 1013.7
20260506134012 10 68 1.6 1.6 0.00 0.33 0.33 89 1013.5
20260506133509 9 55 0.0 0.0 0.00 0.33 0.33 90 1013.5
20260506133006 9 45 0.0 1.6 0.00 0.33 0.33 90 1013.5
20260506132503 9 42 1.6 1.6 0.00 0.33 0.33 91 1013.2
20260506132000 9 45 0.0 0.0 0.00 0.33 0.33 91 1013.2
20260506131457 9 51 1.6 3.2 0.00 0.33 0.33 91 1013.0